| time (UTC) | temp F | wind direction | speed MPH | gust MPH | rain 1hr in | rain 24hr in | rain mn in | humidity % | barometer mb |
| 20260505210805 | 53 | 59 | 2.0 | 5.0 | 0.00 | 0.01 | 0.00 | 89 | 1030.0 |
| 20260505210305 | 53 | 84 | 1.0 | 3.0 | 0.00 | 0.01 | 0.00 | 89 | 1030.0 |
| 20260505205805 | 53 | 69 | 3.0 | 9.0 | 0.00 | 0.01 | 0.00 | 90 | 1030.0 |
| 20260505204305 | 53 | 77 | 2.0 | 3.0 | 0.00 | 0.01 | 0.00 | 90 | 1030.0 |
| 20260505203805 | 53 | 172 | 3.0 | 7.0 | 0.00 | 0.01 | 0.00 | 90 | 1030.0 |
| 20260505202306 | 53 | 82 | 1.0 | 3.0 | 0.00 | 0.01 | 0.00 | 89 | 1029.7 |
| 20260505201805 | 53 | 69 | 1.0 | 3.0 | 0.00 | 0.01 | 0.00 | 89 | 1029.7 |
| 20260505201304 | 53 | 73 | 0.0 | 2.0 | 0.00 | 0.01 | 0.00 | 89 | 1029.7 |
| 20260505200805 | 53 | 123 | 2.0 | 3.0 | 0.00 | 0.01 | 0.00 | 88 | 1029.7 |
| 20260505200305 | 53 | 222 | 0.0 | 3.0 | 0.00 | 0.01 | 0.00 | 88 | 1029.7 |
| 20260505195805 | 53 | 82 | 1.0 | 3.0 | 0.00 | 0.01 | 0.00 | 89 | 1029.7 |
| 20260505195305 | 53 | 55 | 3.0 | 7.0 | 0.00 | 0.01 | 0.00 | 89 | 1029.7 |
| 20260505194805 | 53 | 117 | 2.0 | 3.0 | 0.00 | 0.01 | 0.00 | 88 | 1029.7 |
| 20260505194305 | 53 | 329 | 2.0 | 3.0 | 0.00 | 0.01 | 0.00 | 88 | 1029.7 |
| 20260505193805 | 53 | 52 | 1.0 | 3.0 | 0.00 | 0.01 | 0.00 | 88 | 1029.7 |
| 20260505192804 | 53 | 129 | 1.0 | 5.0 | 0.00 | 0.01 | 0.00 | 87 | 1029.7 |
| 20260505192306 | 53 | 38 | 0.0 | 3.0 | 0.00 | 0.01 | 0.00 | 87 | 1029.7 |
| 20260505191305 | 54 | 191 | 0.0 | 1.0 | 0.00 | 0.01 | 0.00 | 87 | 1029.7 |
| 20260505190807 | 54 | 196 | 0.0 | 3.0 | 0.00 | 0.01 | 0.00 | 87 | 1029.6 |
| 20260505185805 | 54 | 149 | 0.0 | 3.0 | 0.00 | 0.01 | 0.00 | 86 | 1029.6 |
| 20260505184805 | 54 | 93 | 1.0 | 2.0 | 0.00 | 0.01 | 0.00 | 86 | 1029.7 |
| 20260505184304 | 54 | 126 | 2.0 | 6.0 | 0.00 | 0.01 | 0.00 | 86 | 1029.7 |
| 20260505183804 | 54 | 72 | 1.0 | 5.0 | 0.00 | 0.01 | 0.00 | 86 | 1029.6 |
| 20260505183305 | 54 | 87 | 3.0 | 7.0 | 0.00 | 0.01 | 0.00 | 86 | 1029.6 |
| 20260505182805 | 54 | 98 | 2.0 | 5.0 | 0.00 | 0.01 | 0.00 | 86 | 1029.6 |
| 20260505182306 | 54 | 76 | 2.0 | 6.0 | 0.00 | 0.01 | 0.00 | 86 | 1029.6 |
| 20260505181805 | 54 | 103 | 2.0 | 6.0 | 0.00 | 0.01 | 0.00 | 86 | 1029.6 |
| 20260505181305 | 54 | 262 | 1.0 | 7.0 | 0.00 | 0.01 | 0.00 | 86 | 1029.6 |
| 20260505180305 | 53 | 152 | 1.0 | 3.0 | 0.00 | 0.01 | 0.00 | 86 | 1029.6 |
| 20260505175806 | 54 | 64 | 1.0 | 2.0 | 0.00 | 0.01 | 0.00 | 87 | 1029.6 |
| 20260505175306 | 54 | 64 | 1.0 | 3.0 | 0.00 | 0.01 | 0.00 | 87 | 1029.6 |
| 20260505174805 | 54 | 85 | 1.0 | 5.0 | 0.00 | 0.01 | 0.00 | 87 | 1029.6 |
| 20260505174305 | 54 | 103 | 2.0 | 7.0 | 0.00 | 0.01 | 0.00 | 88 | 1029.6 |
| 20260505173806 | 53 | 359 | 1.0 | 9.0 | 0.00 | 0.01 | 0.00 | 88 | 1029.7 |
| 20260505173305 | 53 | 82 | 3.0 | 6.0 | 0.00 | 0.01 | 0.00 | 89 | 1029.7 |
| 20260505172805 | 53 | 194 | 1.0 | 6.0 | 0.00 | 0.01 | 0.00 | 89 | 1029.7 |
| 20260505172306 | 53 | 31 | 0.0 | 2.0 | 0.00 | 0.01 | 0.00 | 89 | 1029.6 |
| 20260505171805 | 53 | 69 | 2.0 | 5.0 | 0.00 | 0.01 | 0.00 | 90 | 1029.6 |
| 20260505171306 | 52 | 47 | 2.0 | 3.0 | 0.00 | 0.01 | 0.00 | 90 | 1029.6 |
| 20260505170304 | 52 | 323 | 1.0 | 2.0 | 0.00 | 0.01 | 0.00 | 90 | 1029.6 |
| 20260505165805 | 52 | 74 | 1.0 | 3.0 | 0.00 | 0.01 | 0.00 | 90 | 1029.6 |
| 20260505164804 | 52 | 1 | 1.0 | 3.0 | 0.00 | 0.01 | 0.00 | 91 | 1029.6 |
| 20260505164305 | 52 | 41 | 0.0 | 2.0 | 0.00 | 0.01 | 0.00 | 91 | 1029.6 |
| 20260505163305 | 52 | 83 | 1.0 | 3.0 | 0.00 | 0.01 | 0.00 | 91 | 1029.4 |
| 20260505162807 | 52 | 88 | 3.0 | 5.0 | 0.00 | 0.01 | 0.00 | 91 | 1029.4 |
| 20260505162307 | 51 | 16 | 1.0 | 3.0 | 0.00 | 0.01 | 0.00 | 91 | 1029.4 |
| 20260505161804 | 51 | 352 | 2.0 | 3.0 | 0.00 | 0.01 | 0.00 | 91 | 1029.4 |
| 20260505161305 | 52 | 338 | 0.0 | 2.0 | 0.00 | 0.01 | 0.00 | 91 | 1029.4 |
| 20260505160819 | 52 | 325 | 1.0 | 2.0 | 0.00 | 0.01 | 0.00 | 90 | 1029.4 |
| 20260505152805 | 53 | 353 | 1.0 | 2.0 | 0.00 | 0.01 | 0.01 | 89 | 1029.4 |
| 20260505152305 | 53 | 288 | 1.0 | 3.0 | 0.00 | 0.01 | 0.01 | 89 | 1029.4 |
| 20260505150805 | 53 | 284 | 2.0 | 3.0 | 0.00 | 0.01 | 0.01 | 88 | 1029.4 |
| 20260505150305 | 53 | 296 | 2.0 | 3.0 | 0.00 | 0.01 | 0.01 | 88 | 1029.4 |
| 20260505140306 | 55 | 139 | 2.0 | 5.0 | 0.00 | 0.01 | 0.01 | 87 | 1029.4 |
| 20260505124806 | 55 | 178 | 1.0 | 3.0 | 0.00 | 0.01 | 0.01 | 83 | 1028.7 |
| 20260505123805 | 55 | 209 | 1.0 | 2.0 | 0.00 | 0.01 | 0.01 | 82 | 1028.7 |
| 20260505123305 | 56 | 204 | 0.0 | 2.0 | 0.00 | 0.01 | 0.01 | 82 | 1028.7 |
| 20260505122806 | 56 | 199 | 1.0 | 3.0 | 0.00 | 0.01 | 0.01 | 82 | 1028.7 |
| 20260505122305 | 56 | 151 | 1.0 | 2.0 | 0.00 | 0.01 | 0.01 | 82 | 1028.7 |
| 20260505121304 | 56 | 201 | 2.0 | 3.0 | 0.00 | 0.01 | 0.01 | 81 | 1028.7 |
| 20260505120804 | 56 | 239 | 0.0 | 2.0 | 0.00 | 0.01 | 0.01 | 81 | 1028.7 |
| 20260505120305 | 56 | 239 | 1.0 | 2.0 | 0.00 | 0.01 | 0.01 | 81 | 1028.7 |
| 20260505115804 | 56 | 175 | 1.0 | 3.0 | 0.00 | 0.01 | 0.01 | 81 | 1028.7 |
| 20260505115306 | 56 | 265 | 1.0 | 3.0 | 0.00 | 0.01 | 0.01 | 81 | 1028.6 |
| 20260505114305 | 57 | 295 | 1.0 | 3.0 | 0.00 | 0.01 | 0.01 | 81 | 1028.0 |
| 20260505113305 | 57 | 235 | 0.0 | 3.0 | 0.00 | 0.01 | 0.01 | 81 | 1028.0 |
| 20260505112804 | 57 | 181 | 1.0 | 3.0 | 0.00 | 0.01 | 0.01 | 81 | 1028.0 |
| 20260505112305 | 57 | 197 | 1.0 | 2.0 | 0.00 | 0.01 | 0.01 | 81 | 1028.0 |
| 20260505111806 | 57 | 192 | 1.0 | 2.0 | 0.00 | 0.01 | 0.01 | 81 | 1028.0 |
| 20260505111305 | 57 | 199 | 1.0 | 2.0 | 0.00 | 0.01 | 0.01 | 80 | 1028.0 |
| 20260505110806 | 58 | 209 | 1.0 | 2.0 | 0.00 | 0.01 | 0.01 | 80 | 1028.0 |
| 20260505110306 | 58 | 209 | 1.0 | 3.0 | 0.00 | 0.01 | 0.01 | 80 | 1028.0 |
| 20260505101804 | 60 | 199 | 1.0 | 3.0 | 0.00 | 0.01 | 0.01 | 78 | 1027.5 |
| 20260505101305 | 61 | 175 | 0.0 | 2.0 | 0.00 | 0.01 | 0.01 | 78 | 1027.5 |
| 20260505100804 | 61 | 175 | 1.0 | 3.0 | 0.00 | 0.01 | 0.01 | 77 | 1027.5 |
| 20260505100305 | 61 | 189 | 1.0 | 3.0 | 0.00 | 0.01 | 0.01 | 77 | 1027.5 |
| 20260505095805 | 62 | 156 | 0.0 | 2.0 | 0.00 | 0.01 | 0.01 | 76 | 1027.3 |
| 20260505095305 | 62 | 213 | 1.0 | 2.0 | 0.00 | 0.01 | 0.01 | 76 | 1027.3 |
| 20260505093806 | 63 | 176 | 1.0 | 3.0 | 0.00 | 0.01 | 0.01 | 74 | 1027.3 |
| 20260505093305 | 63 | 202 | 1.0 | 2.0 | 0.00 | 0.01 | 0.01 | 73 | 1027.2 |
| 20260505092805 | 63 | 206 | 1.0 | 3.0 | 0.00 | 0.01 | 0.01 | 73 | 1027.2 |
| 20260505092305 | 63 | 185 | 1.0 | 3.0 | 0.00 | 0.01 | 0.01 | 72 | 1026.7 |
| 20260505091306 | 64 | 181 | 1.0 | 3.0 | 0.00 | 0.01 | 0.01 | 72 | 1026.7 |
| 20260505090805 | 64 | 180 | 1.0 | 3.0 | 0.00 | 0.01 | 0.01 | 72 | 1026.7 |
| 20260505085804 | 64 | 138 | 0.0 | 1.0 | 0.00 | 0.01 | 0.01 | 72 | 1026.7 |
| 20260505085305 | 64 | 175 | 0.0 | 2.0 | 0.00 | 0.01 | 0.01 | 72 | 1026.7 |
| 20260505084804 | 65 | 185 | 1.0 | 3.0 | 0.00 | 0.01 | 0.01 | 70 | 1026.7 |
| 20260505084305 | 65 | 178 | 2.0 | 7.0 | 0.00 | 0.01 | 0.01 | 70 | 1026.7 |
| 20260505083805 | 65 | 161 | 1.0 | 3.0 | 0.00 | 0.01 | 0.01 | 69 | 1026.7 |
| 20260505082806 | 67 | 183 | 1.0 | 3.0 | 0.00 | 0.01 | 0.01 | 67 | 1026.7 |
| 20260505082306 | 67 | 156 | 1.0 | 2.0 | 0.00 | 0.01 | 0.01 | 66 | 1026.7 |
| 20260505081805 | 68 | 199 | 1.0 | 3.0 | 0.00 | 0.01 | 0.01 | 65 | 1026.7 |
| 20260505081306 | 67 | 159 | 1.0 | 3.0 | 0.00 | 0.01 | 0.01 | 65 | 1026.6 |
| 20260505080805 | 68 | 212 | 1.0 | 2.0 | 0.00 | 0.01 | 0.01 | 64 | 1026.6 |
| 20260505075805 | 67 | 213 | 3.0 | 5.0 | 0.00 | 0.01 | 0.01 | 66 | 1026.6 |
| 20260505074806 | 68 | 193 | 2.0 | 3.0 | 0.00 | 0.01 | 0.01 | 65 | 1026.6 |
| 20260505074305 | 68 | 223 | 3.0 | 6.0 | 0.00 | 0.01 | 0.01 | 65 | 1026.5 |
| 20260505073805 | 67 | 140 | 2.0 | 3.0 | 0.00 | 0.01 | 0.01 | 66 | 1026.5 |
| 20260505073306 | 67 | 233 | 2.0 | 3.0 | 0.00 | 0.01 | 0.01 | 66 | 1026.5 |
| 20260505072806 | 68 | 211 | 2.0 | 3.0 | 0.00 | 0.01 | 0.01 | 65 | 1026.5 |
| 20260505072305 | 67 | 214 | 2.0 | 3.0 | 0.00 | 0.01 | 0.01 | 64 | 1026.5 |
| 20260505071804 | 68 | 214 | 1.0 | 3.0 | 0.00 | 0.01 | 0.01 | 64 | 1026.5 |
| 20260505071305 | 68 | 233 | 1.0 | 6.0 | 0.00 | 0.01 | 0.01 | 64 | 1026.5 |
| 20260505070305 | 69 | 90 | 1.0 | 2.0 | 0.00 | 0.01 | 0.01 | 61 | 1026.6 |
| 20260505065805 | 69 | 49 | 1.0 | 3.0 | 0.00 | 0.01 | 0.01 | 62 | 1026.6 |
| 20260505065306 | 68 | 151 | 2.0 | 5.0 | 0.00 | 0.01 | 0.01 | 65 | 1026.6 |
| 20260505064305 | 69 | 218 | 2.0 | 6.0 | 0.00 | 0.01 | 0.01 | 64 | 1026.6 |
| 20260505063806 | 69 | 208 | 2.0 | 7.0 | 0.00 | 0.01 | 0.01 | 65 | 1026.6 |
| 20260505062806 | 68 | 117 | 1.0 | 3.0 | 0.00 | 0.01 | 0.01 | 63 | 1026.6 |
| 20260505062305 | 67 | 232 | 1.0 | 3.0 | 0.00 | 0.01 | 0.01 | 64 | 1026.6 |
| 20260505061804 | 66 | 165 | 0.0 | 2.0 | 0.00 | 0.01 | 0.01 | 69 | 1026.6 |
| 20260505061305 | 66 | 185 | 0.0 | 2.0 | 0.00 | 0.01 | 0.01 | 69 | 1026.7 |
| 20260505060805 | 66 | 214 | 1.0 | 3.0 | 0.00 | 0.01 | 0.01 | 68 | 1026.7 |
| 20260505055804 | 67 | 127 | 2.0 | 3.0 | 0.00 | 0.01 | 0.01 | 67 | 1026.7 |
| 20260505055306 | 67 | 185 | 2.0 | 3.0 | 0.00 | 0.01 | 0.01 | 70 | 1026.7 |
| 20260505054804 | 66 | 209 | 2.0 | 3.0 | 0.00 | 0.01 | 0.01 | 70 | 1026.7 |
| 20260505054304 | 65 | 192 | 3.0 | 5.0 | 0.00 | 0.01 | 0.01 | 69 | 1026.7 |
| 20260505053806 | 66 | 159 | 1.0 | 3.0 | 0.00 | 0.01 | 0.01 | 69 | 1026.7 |
| 20260505053304 | 67 | 183 | 1.0 | 3.0 | 0.00 | 0.01 | 0.01 | 66 | 1026.7 |
| 20260505052806 | 68 | 148 | 2.0 | 3.0 | 0.00 | 0.01 | 0.01 | 65 | 1026.7 |
| 20260505052305 | 69 | 28 | 2.0 | 5.0 | 0.00 | 0.01 | 0.01 | 65 | 1026.7 |
| 20260505051805 | 68 | 134 | 2.0 | 3.0 | 0.00 | 0.01 | 0.01 | 65 | 1026.7 |
| 20260505051305 | 68 | 107 | 3.0 | 6.0 | 0.00 | 0.01 | 0.01 | 67 | 1027.2 |
| 20260505050805 | 67 | 75 | 0.0 | 2.0 | 0.00 | 0.01 | 0.01 | 68 | 1027.2 |
| 20260505050306 | 65 | 184 | 0.0 | 1.0 | 0.00 | 0.01 | 0.01 | 70 | 1027.2 |
| 20260505041305 | 65 | 196 | 1.0 | 2.0 | 0.00 | 0.01 | 0.01 | 74 | 1028.0 |
| 20260505040805 | 65 | 196 | 1.0 | 3.0 | 0.00 | 0.01 | 0.01 | 73 | 1028.0 |
| 20260505040305 | 65 | 198 | 0.0 | 2.0 | 0.00 | 0.01 | 0.01 | 73 | 1028.0 |
| 20260505035805 | 64 | 122 | 0.0 | 3.0 | 0.00 | 0.01 | 0.01 | 74 | 1028.0 |
| 20260505034305 | 65 | 105 | 3.0 | 3.0 | 0.00 | 0.01 | 0.01 | 72 | 1028.4 |
| 20260505033804 | 66 | 139 | 1.0 | 2.0 | 0.00 | 0.01 | 0.01 | 75 | 1028.4 |
| 20260505033305 | 65 | 187 | 2.0 | 3.0 | 0.00 | 0.01 | 0.01 | 73 | 1028.4 |
| 20260505032305 | 64 | 88 | 4.0 | 7.0 | 0.00 | 0.01 | 0.01 | 74 | 1028.4 |
| 20260505031805 | 65 | 73 | 2.0 | 5.0 | 0.00 | 0.01 | 0.01 | 73 | 1028.7 |
| 20260505031306 | 65 | 278 | 1.0 | 3.0 | 0.00 | 0.01 | 0.01 | 74 | 1028.7 |
| 20260505030805 | 65 | 149 | 1.0 | 3.0 | 0.00 | 0.01 | 0.01 | 74 | 1028.7 |
| 20260505030304 | 65 | 39 | 1.0 | 5.0 | 0.00 | 0.01 | 0.01 | 73 | 1028.7 |
| 20260505025804 | 64 | 293 | 2.0 | 5.0 | 0.00 | 0.01 | 0.01 | 75 | 1028.7 |
| 20260505025305 | 63 | 100 | 3.0 | 8.0 | 0.00 | 0.01 | 0.01 | 76 | 1028.7 |
| 20260505024805 | 63 | 65 | 3.0 | 6.0 | 0.00 | 0.01 | 0.01 | 76 | 1029.1 |
| 20260505023806 | 63 | 68 | 3.0 | 9.0 | 0.00 | 0.01 | 0.01 | 77 | 1029.1 |
| 20260505023305 | 63 | 120 | 5.0 | 6.0 | 0.00 | 0.01 | 0.01 | 77 | 1029.1 |
| 20260505022805 | 63 | 82 | 3.0 | 5.0 | 0.00 | 0.01 | 0.01 | 78 | 1029.1 |
| 20260505022305 | 62 | 115 | 2.0 | 5.0 | 0.00 | 0.01 | 0.01 | 80 | 1029.1 |
| 20260505021805 | 62 | 107 | 2.0 | 3.0 | 0.00 | 0.01 | 0.01 | 81 | 1029.1 |
| 20260505021306 | 61 | 47 | 2.0 | 5.0 | 0.00 | 0.01 | 0.01 | 82 | 1029.1 |
| 20260505020804 | 61 | 113 | 3.0 | 6.0 | 0.00 | 0.01 | 0.01 | 82 | 1029.2 |
| 20260505015804 | 60 | 62 | 3.0 | 5.0 | 0.00 | 0.01 | 0.01 | 83 | 1029.2 |
| 20260505015306 | 60 | 16 | 4.0 | 7.0 | 0.00 | 0.01 | 0.01 | 83 | 1029.2 |
| 20260505014805 | 60 | 54 | 1.0 | 3.0 | 0.00 | 0.01 | 0.01 | 85 | 1029.2 |
| 20260505014307 | 60 | 16 | 2.0 | 3.0 | 0.00 | 0.01 | 0.01 | 85 | 1029.3 |
| 20260505013304 | 58 | 73 | 2.0 | 5.0 | 0.00 | 0.01 | 0.01 | 87 | 1029.5 |
| 20260505012806 | 57 | 57 | 3.0 | 5.0 | 0.00 | 0.01 | 0.01 | 87 | 1029.5 |
| 20260505012305 | 57 | 50 | 1.0 | 3.0 | 0.00 | 0.01 | 0.01 | 89 | 1029.5 |
| 20260505011805 | 56 | 49 | 2.0 | 3.0 | 0.00 | 0.01 | 0.01 | 89 | 1029.3 |
| 20260505010805 | 55 | 67 | 0.0 | 1.0 | 0.00 | 0.01 | 0.01 | 93 | 1029.3 |
| 20260505010306 | 54 | 67 | 1.0 | 2.0 | 0.00 | 0.01 | 0.01 | 93 | 1029.3 |
| 20260505005304 | 52 | 18 | 1.0 | 3.0 | 0.00 | 0.01 | 0.01 | 96 | 1029.1 |
| 20260505004805 | 51 | 14 | 1.0 | 2.0 | 0.00 | 0.01 | 0.01 | 97 | 1029.1 |
| 20260505004306 | 49 | 14 | 0.0 | 1.0 | 0.00 | 0.01 | 0.01 | 96 | 1029.1 |
| 20260505003805 | 49 | 14 | 0.0 | 1.0 | 0.00 | 0.01 | 0.01 | 98 | 1029.1 |
| 20260505003305 | 48 | 14 | 1.0 | 1.0 | 0.00 | 0.01 | 0.01 | 98 | 1029.1 |
| 20260505002805 | 47 | 14 | 0.0 | 0.0 | 0.01 | 0.01 | 0.01 | 100 | 1029.1 |
| 20260505002305 | 45 | 14 | 0.0 | 1.0 | 0.01 | 0.01 | 0.01 | 99 | 1029.1 |
| 20260505001805 | 44 | 14 | 0.0 | 1.0 | 0.01 | 0.01 | 0.01 | 99 | 1029.1 |
| 20260505000804 | 43 | 113 | 0.0 | 1.0 | 0.01 | 0.01 | 0.01 | 99 | 1028.8 |
| 20260505000305 | 42 | 113 | 0.0 | 1.0 | 0.01 | 0.01 | 0.01 | 99 | 1028.8 |
| 20260504235805 | 42 | 113 | 0.0 | 1.0 | 0.01 | 0.01 | 0.01 | 99 | 1028.8 |
| 20260504235306 | 41 | 113 | 0.0 | 1.0 | 0.01 | 0.01 | 0.01 | 99 | 1028.8 |
| 20260504234805 | 40 | 113 | 0.0 | 1.0 | 0.01 | 0.01 | 0.01 | 99 | 1028.8 |
| 20260504233804 | 40 | 112 | 0.0 | 1.0 | 0.01 | 0.01 | 0.01 | 98 | 1028.8 |
| 20260504233306 | 39 | 112 | 0.0 | 1.0 | 0.01 | 0.01 | 0.01 | 99 | 1028.7 |
| 20260504232806 | 39 | 89 | 0.0 | 1.0 | 0.00 | 0.00 | 0.00 | 98 | 1028.6 |
| 20260504232305 | 39 | 123 | 0.0 | 1.0 | 0.00 | 0.00 | 0.00 | 98 | 1028.6 |
| 20260504231806 | 39 | 65 | 0.0 | 0.0 | 0.00 | 0.00 | 0.00 | 98 | 1028.6 |
| 20260504231305 | 38 | 2 | 0.0 | 0.0 | 0.00 | 0.00 | 0.00 | 98 | 1028.6 |
| 20260504230306 | 38 | 2 | 0.0 | 0.0 | 0.00 | 0.00 | 0.00 | 97 | 1028.3 |
| 20260504225805 | 38 | 2 | 0.0 | 1.0 | 0.00 | 0.00 | 0.00 | 97 | 1028.3 |
| 20260504225304 | 38 | 2 | 0.0 | 1.0 | 0.00 | 0.00 | 0.00 | 97 | 1028.0 |
| 20260504224306 | 38 | 2 | 0.0 | 0.0 | 0.00 | 0.00 | 0.00 | 97 | 1028.0 |
| 20260504223805 | 38 | 2 | 0.0 | 0.0 | 0.00 | 0.00 | 0.00 | 97 | 1028.0 |
| 20260504223305 | 38 | 2 | 0.0 | 0.0 | 0.00 | 0.00 | 0.00 | 97 | 1028.0 |
| 20260504222805 | 38 | 2 | 0.0 | 0.0 | 0.00 | 0.00 | 0.00 | 97 | 1028.1 |
| 20260504221806 | 38 | 2 | 0.0 | 0.0 | 0.00 | 0.00 | 0.00 | 97 | 1028.0 |
| 20260504221306 | 39 | 2 | 0.0 | 0.0 | 0.00 | 0.00 | 0.00 | 97 | 1028.0 |
| 20260504220805 | 39 | 2 | 0.0 | 1.0 | 0.00 | 0.00 | 0.00 | 97 | 1028.0 |
| 20260504220305 | 39 | 2 | 0.0 | 0.0 | 0.00 | 0.00 | 0.00 | 97 | 1028.0 |
| 20260504215805 | 39 | 2 | 0.0 | 0.0 | 0.00 | 0.00 | 0.00 | 97 | 1028.0 |
| 20260504214305 | 39 | 2 | 0.0 | 1.0 | 0.00 | 0.00 | 0.00 | 97 | 1028.0 |
| 20260504213806 | 39 | 2 | 0.0 | 0.0 | 0.00 | 0.00 | 0.00 | 97 | 1027.9 |
| 20260504213304 | 39 | 2 | 0.0 | 1.0 | 0.00 | 0.00 | 0.00 | 97 | 1027.9 |
| 20260504212805 | 39 | 2 | 0.0 | 1.0 | 0.00 | 0.00 | 0.00 | 97 | 1027.9 |
| 20260504212306 | 39 | 2 | 0.0 | 1.0 | 0.00 | 0.00 | 0.00 | 96 | 1027.8 |
| 20260504211805 | 39 | 2 | 0.0 | 2.0 | 0.00 | 0.00 | 0.00 | 97 | 1027.8 |